Troy, MI

6:12 PM EDT on September 20, 2017 (GMT -0400)
Troy

Weather History for KVLL - October, 2013

Change the Weather History Date:

Friday, October 25, 2013

  Actual Average (KDET) Record (KDET)
Temperature  
Mean Temperature 42 °F -  
Max Temperature 49 °F 57 °F 82 °F (1963)
Min Temperature 34 °F 42 °F 29 °F (1962)
Degree Days  
Heating Degree Days 24    
Moisture  
Dew Point 30 °F    
Average Humidity 67    
Maximum Humidity 90    
Minimum Humidity 36    
Precipitation  
Precipitation 0.00 in - - ()
Sea Level Pressure  
Sea Level Pressure 30.24 in    
Wind  
Wind Speed 8 mph (WSW)    
Max Wind Speed 15 mph    
Max Gust Speed 23 mph    
Visibility 10 miles    
Events      
Averages and records for this station are not official NWS values.
T = Trace of Precipitation, MM = Missing Value Source: NWS Daily Summary

Daily Weather History Graph

Daily Weather History Graph

Search for Another Location

Airport or City:

Trip Planner

Search our weather history database for the weather conditions in past years. The results will help you decide how hot, cold, wet, or windy it might be!

Date:

Astronomy

Oct. 25, 2013 Rise Set
Actual Time 7:57 AM EDT 6:34 PM EDT
Civil Twilight 7:29 AM EDT 7:03 PM EDT
Nautical Twilight 6:56 AM EDT 7:36 PM EDT
Astronomical Twilight 6:23 AM EDT 8:09 PM EDT
Moon 11:51 PM EDT (10/25) 1:39 PM EDT (10/25)
Length of Visible Light 11h 34m
Length of Day
10h 36m
Waning Gibbous, 62% of the Moon is Illuminated
Oct 25
Waning Gibbous
Oct 26
Last Quarter
Nov 3
New
Nov 10
First Quarter
Nov 17
Full

Hourly Weather History & Observations

Time (EDT) Temp. Windchill Dew Point Humidity Pressure Visibility Wind Dir Wind Speed Gust Speed Precip Events Conditions
12:14 AM 36.7 °F 31.2 °F 32.0 °F 83% 30.18 in 10.0 mi WSW 6.9 mph - N/A   Clear
12:34 AM 37.0 °F 31.6 °F 31.8 °F 81% 30.18 in 10.0 mi West 6.9 mph - N/A   Clear
12:54 AM 36.7 °F 32.0 °F 31.6 °F 82% 30.18 in 10.0 mi West 5.8 mph - N/A   Clear
1:14 AM 36.5 °F 31.0 °F 31.6 °F 83% 30.19 in 10.0 mi West 6.9 mph - N/A   Clear
1:34 AM 36.7 °F 32.9 °F 31.6 °F 82% 30.19 in 10.0 mi West 4.6 mph - N/A   Clear
1:54 AM 36.5 °F 31.8 °F 31.6 °F 83% 30.19 in 10.0 mi West 5.8 mph - N/A   Clear
2:15 AM 36.0 °F 31.1 °F 31.5 °F 84% 30.20 in 10.0 mi West 5.8 mph - N/A   Clear
2:34 AM 35.8 °F 31.9 °F 31.5 °F 84% 30.20 in 10.0 mi West 4.6 mph - N/A   Clear
2:54 AM 35.6 °F 31.7 °F 31.1 °F 84% 30.21 in 10.0 mi West 4.6 mph - N/A   Clear
3:14 AM 35.2 °F 30.3 °F 31.1 °F 85% 30.22 in 10.0 mi West 5.8 mph - N/A   Clear
3:34 AM 35.1 °F 31.0 °F 31.1 °F 85% 30.22 in 10.0 mi West 4.6 mph - N/A   Clear
3:54 AM 35.4 °F 30.5 °F 31.1 °F 84% 30.22 in 10.0 mi West 5.8 mph - N/A   Clear
4:14 AM 35.4 °F 31.5 °F 31.1 °F 84% 30.22 in 10.0 mi West 4.6 mph - N/A   Clear
4:34 AM 35.4 °F 31.5 °F 31.3 °F 85% 30.23 in 10.0 mi West 4.6 mph - N/A   Clear
4:54 AM 35.2 °F 31.2 °F 31.1 °F 85% 30.23 in 10.0 mi WSW 4.6 mph - N/A   Clear
5:14 AM 35.1 °F 29.3 °F 31.3 °F 86% 30.23 in 10.0 mi West 6.9 mph - N/A   Clear
5:34 AM 35.1 °F 29.3 °F 31.5 °F 87% 30.24 in 10.0 mi West 6.9 mph - N/A   Clear
5:54 AM 35.1 °F 29.3 °F 31.5 °F 87% 30.25 in 10.0 mi West 6.9 mph - N/A   Clear
6:14 AM 34.9 °F 29.9 °F 31.6 °F 88% 30.25 in 10.0 mi West 5.8 mph - N/A   Clear
6:34 AM 34.5 °F 28.6 °F 31.5 °F 89% 30.26 in 10.0 mi West 6.9 mph - N/A   Clear
6:54 AM 34.5 °F 27.9 °F 31.5 °F 89% 30.27 in 10.0 mi West 8.1 mph - N/A   Clear
7:14 AM 34.3 °F 27.7 °F 31.6 °F 90% 30.28 in 10.0 mi West 8.1 mph - N/A   Scattered Clouds
7:34 AM 34.9 °F 27.7 °F 32.0 °F 89% 30.28 in 10.0 mi West 9.2 mph - N/A   Overcast
7:54 AM 35.8 °F 28.8 °F 32.0 °F 86% 30.29 in 10.0 mi WNW 9.2 mph - N/A   Overcast
8:14 AM 36.5 °F 29.7 °F 32.5 °F 86% 30.29 in 10.0 mi WNW 9.2 mph - N/A   Overcast
8:34 AM 36.9 °F 30.7 °F 32.9 °F 86% 30.30 in 10.0 mi WNW 8.1 mph - N/A   Overcast
8:54 AM 37.4 °F 30.3 °F 32.9 °F 84% 30.31 in 10.0 mi WNW 10.4 mph - N/A   Overcast
9:13 AM 37.9 °F 32.1 °F 33.1 °F 83% 30.32 in 10.0 mi West 8.1 mph 16.1 mph N/A   Overcast
9:33 AM 38.3 °F 30.5 °F 33.1 °F 81% 30.32 in 10.0 mi WNW 12.7 mph - N/A   Overcast
9:54 AM 38.7 °F 33.6 °F 33.3 °F 81% 30.32 in 10.0 mi West 6.9 mph - N/A   Overcast
10:14 AM 39.6 °F 34.7 °F 33.8 °F 80% 30.32 in 10.0 mi West 6.9 mph - N/A   Overcast
10:34 AM 39.9 °F 33.9 °F 33.4 °F 78% 30.32 in 10.0 mi WNW 9.2 mph - N/A   Mostly Cloudy
10:54 AM 41.4 °F 35.7 °F 33.4 °F 73% 30.32 in 10.0 mi WNW 9.2 mph - N/A   Scattered Clouds
11:13 AM 42.1 °F 37.1 °F 33.1 °F 70% 30.32 in 10.0 mi West 8.1 mph - N/A   Scattered Clouds
11:35 AM 43.0 °F 37.7 °F 32.9 °F 68% 30.32 in 10.0 mi West 9.2 mph - N/A   Scattered Clouds
11:54 AM 43.2 °F 37.4 °F 32.7 °F 67% 30.32 in 10.0 mi West 10.4 mph 16.1 mph N/A   Scattered Clouds
12:14 PM 45.0 °F 38.9 °F 32.7 °F 62% 30.32 in 10.0 mi West 12.7 mph - N/A   Clear
12:34 PM 45.7 °F 41.5 °F 32.4 °F 60% 30.32 in 10.0 mi WNW 8.1 mph - N/A   Scattered Clouds
12:54 PM 46.6 °F - 30.4 °F 53% 30.31 in 10.0 mi WNW 10.4 mph 17.3 mph N/A   Scattered Clouds
1:14 PM 47.8 °F - 29.1 °F 48% 30.30 in 10.0 mi WSW 11.5 mph - N/A   Mostly Cloudy
1:35 PM 47.1 °F - 28.9 °F 49% 30.30 in 10.0 mi WNW 6.9 mph - N/A   Overcast
1:54 PM 48.2 °F - 25.9 °F 42% 30.29 in 10.0 mi West 15.0 mph 19.6 mph N/A   Mostly Cloudy
2:14 PM 49.3 °F - 24.3 °F 38% 30.28 in 10.0 mi WSW 10.4 mph 18.4 mph N/A   Overcast
2:34 PM 48.7 °F - 22.8 °F 36% 30.28 in 10.0 mi WSW 12.7 mph 20.7 mph N/A   Overcast
2:54 PM 48.0 °F - 22.5 °F 37% 30.27 in 10.0 mi WSW 15.0 mph 23.0 mph N/A   Overcast
3:14 PM 47.3 °F - 25.0 °F 42% 30.27 in 10.0 mi West 10.4 mph 17.3 mph N/A   Overcast
3:34 PM 47.1 °F - 24.4 °F 41% 30.27 in 10.0 mi West 10.4 mph - N/A   Overcast
3:54 PM 46.9 °F - 25.9 °F 44% 30.27 in 10.0 mi WSW 11.5 mph 16.1 mph N/A   Overcast
4:15 PM 47.5 °F - 25.9 °F 43% 30.26 in 10.0 mi WSW 10.4 mph 19.6 mph N/A   Mostly Cloudy
4:34 PM 47.1 °F - 26.1 °F 44% 30.26 in 10.0 mi West 9.2 mph 16.1 mph N/A   Overcast
4:55 PM 46.9 °F - 26.8 °F 45% 30.25 in 10.0 mi WSW 8.1 mph - N/A   Overcast
5:14 PM 46.8 °F - 26.4 °F 45% 30.25 in 10.0 mi WSW 9.2 mph 16.1 mph N/A   Overcast
5:35 PM 46.6 °F - 26.8 °F 46% 30.24 in 10.0 mi SW 6.9 mph - N/A   Overcast
5:54 PM 46.4 °F 41.9 °F 27.5 °F 48% 30.23 in 10.0 mi SW 9.2 mph - N/A   Overcast
6:15 PM 46.2 °F 42.2 °F 28.2 °F 50% 30.23 in 10.0 mi WSW 8.1 mph - N/A   Overcast
6:34 PM 45.1 °F 40.3 °F 28.8 °F 53% 30.22 in 10.0 mi SW 9.2 mph - N/A   Mostly Cloudy
6:55 PM 44.6 °F 40.2 °F 28.9 °F 54% 30.22 in 10.0 mi SW 8.1 mph - N/A   Clear
7:15 PM 43.9 °F 39.9 °F 28.8 °F 55% 30.22 in 10.0 mi SW 6.9 mph - N/A   Clear
7:34 PM 43.7 °F 38.6 °F 28.8 °F 56% 30.21 in 10.0 mi SW 9.2 mph - N/A   Clear
7:55 PM 43.3 °F 38.6 °F 28.9 °F 57% 30.20 in 10.0 mi SSW 8.1 mph - N/A   Scattered Clouds
8:15 PM 43.2 °F 38.4 °F 28.9 °F 57% 30.20 in 10.0 mi SSW 8.1 mph - N/A   Scattered Clouds
8:34 PM 42.8 °F 38.0 °F 28.4 °F 57% 30.19 in 10.0 mi SW 8.1 mph - N/A   Clear
8:55 PM 42.1 °F 36.6 °F 28.4 °F 58% 30.18 in 10.0 mi SW 9.2 mph - N/A   Clear
9:14 PM 41.9 °F 36.9 °F 28.2 °F 58% 30.18 in 10.0 mi SW 8.1 mph - N/A   Clear
9:35 PM 41.2 °F 36.6 °F 28.4 °F 60% 30.17 in 10.0 mi SW 6.9 mph - N/A   Clear
9:54 PM 41.0 °F 36.4 °F 28.8 °F 62% 30.17 in 10.0 mi SW 6.9 mph - N/A   Clear
10:15 PM 41.0 °F 36.4 °F 28.4 °F 61% 30.16 in 10.0 mi SSW 6.9 mph - N/A   Scattered Clouds
10:34 PM 40.6 °F 36.7 °F 28.0 °F 61% 30.16 in 10.0 mi SSW 5.8 mph - N/A   Scattered Clouds
10:55 PM 40.1 °F 34.1 °F 27.5 °F 61% 30.15 in 10.0 mi SSW 9.2 mph - N/A   Clear
11:15 PM 40.1 °F 34.1 °F 27.1 °F 60% 30.14 in 10.0 mi SSW 9.2 mph - N/A   Clear
11:34 PM 40.1 °F 34.1 °F 26.6 °F 59% 30.14 in 10.0 mi SSW 9.2 mph - N/A   Scattered Clouds
11:55 PM 40.6 °F 35.4 °F 26.4 °F 57% 30.13 in 10.0 mi SSW 8.1 mph - N/A   Mostly Cloudy